This is the latest recevied weather packets stored in our database for station/object GBTWP-2. If no packets are shown the sender has not sent any weather packets the latest 10 day(s).
| Time | Temp. | Humidity | Pressure | Rain* | Wind** | Luminosity | Snow |
|---|---|---|---|---|---|---|---|
| 1777897801 | 12.78° C | 68% | 1006.9 hPa | 0 mm | - | 35 W/m² | - |
| 1777897202 | 12.22° C | 70% | 1006.9 hPa | 0 mm | - | 28 W/m² | - |
| 1777896901 | 12.22° C | 70% | 1006.9 hPa | 0 mm | - | 34 W/m² | - |
| 1777896602 | 11.67° C | 71% | 1007 hPa | 0 mm | - | 77 W/m² | - |
| 1777895401 | 11.67° C | 71% | 1007 hPa | 0 mm | - | 30 W/m² | - |
| 1777894802 | 11.11° C | 72% | 1006.9 hPa | 0 mm | - | 37 W/m² | - |
| 1777894202 | 10.56° C | 74% | 1006.9 hPa | 0 mm | - | 28 W/m² | - |
| 1777893901 | 10.56° C | 74% | 1007 hPa | 0 mm | - | 21 W/m² | - |
| 1777893602 | 10.56° C | 74% | 1006.8 hPa | 0 mm | - | 20 W/m² | - |
| 1777893302 | 10° C | 75% | 1006.8 hPa | 0 mm | - | 20 W/m² | - |
| 1777892102 | 10° C | 76% | 1006.7 hPa | 0 mm | - | 10 W/m² | - |
| 1777891801 | 9.44° C | 76% | 1007 hPa | 0 mm | - | 8 W/m² | - |
| 1777891502 | 9.44° C | 76% | 1006.8 hPa | 0 mm | - | 7 W/m² | - |
| 1777890301 | 9.44° C | 76% | 1006.9 hPa | 0 mm | - | 1 W/m² | - |
| 1777890002 | 9.44° C | 76% | 1007 hPa | 0 mm | - | 1 W/m² | - |
| 1777889702 | 9.44° C | 76% | 1007.1 hPa | 0 mm | - | 0 W/m² | - |
| 1777889401 | 10° C | 75% | 1007.1 hPa | 0 mm | - | 0 W/m² | - |
| 1777889102 | 10° C | 75% | 1007 hPa | 0 mm | - | 0 W/m² | - |
| 1777888801 | 10° C | 75% | 1006.8 hPa | 0 mm | - | 0 W/m² | - |
| 1777888201 | 10° C | 75% | 1007 hPa | 0 mm | - | 0 W/m² | - |
| 1777887902 | 9.44° C | 75% | 1007 hPa | 0 mm | - | 0 W/m² | - |
| 1777887601 | 9.44° C | 76% | 1006.9 hPa | 0 mm | - | 0 W/m² | - |
| 1777887302 | 9.44° C | 75% | 1007 hPa | 0 mm | - | 0 W/m² | - |
| 1777887001 | 10° C | 74% | 1007 hPa | 0 mm | - | 0 W/m² | - |
| 1777885802 | 10° C | 74% | 1007.2 hPa | 0 mm | - | 0 W/m² | - |
* Rain latest hour (hover to see other rain measurements)
** Current wind speed in m/s (hover to see current wind gust speed)